Location: Béaulencourt
(50.0796°N, 2.8795°E)
Time: 07:26:30
(UTC+00:00)

Cosmos 2082 Rocket - Pass Details

Date: 20 January 2026
Orbit: 831 x 853 km, 71.0° (Epoch: 18 February)

Event Time Altitude Azimuth Distance (km) Brightness Sun altitude
Exits shadow 03:44:08 33° 63° (ENE) 1,382 3.7 -36.8°
Drops below altitude 10° 03:48:36 10° 113° (ESE) 2,474 5.2 -36.1°
Sets 03:51:16 0° 122° (ESE) 3,409 5.9 -35.7°
